Weather History for Athens, OH

Change the Weather History Date:

Monday, February 4, 2013

  Actual Average (KPKB) Record (KPKB)
Temperature  
Mean Temperature 22 °F 33 °F  
Max Temperature 32 °F 41 °F 70 °F (1962)
Min Temperature 13 °F 24 °F -10 °F (1966)
Degree Days  
Heating Degree Days 42 32  
Since 1 July heating degree days 3075  
Moisture  
Dew Point 21 °F    
Average Humidity 83    
Maximum Humidity 98    
Minimum Humidity 65    
Precipitation  
Precipitation 0.00 in 0.10 in 0.40 in (2003)
Month to date precipitation 0.40  
Year to date precipitation 3.35  
Sea Level Pressure  
Sea Level Pressure 29.98 in    
Wind  
Wind Speed 4 mph (South)    
Max Wind Speed 10 mph    
Max Gust Speed 16 mph    
Visibility 8 miles    
Events Snow    
T = Trace of Precipitation, MM = Missing Value Source: NWS Daily Summary

Daily Weather History Graph

Daily Weather History Graph

Search for Another Location

Airport:

Trip Planner

Search our weather history database for the weather conditions in past years. The results will help you decide how hot, cold, wet, or windy it might be!

Date:

Astronomy

Feb. 04, 2013 Rise Set
Actual Time 7:32 AM EST 5:53 PM EST
Civil Twilight 7:04 AM EST 6:21 PM EST
Nautical Twilight 6:32 AM EST 6:53 PM EST
Astronomical Twilight 6:01 AM EST 7:24 PM EST
Moon 2:06 AM EST (2/4) 12:16 PM EST (2/4)
Length of Visible Light 11h 16m
Length of Day
10h 20m
Last Quarter, 37% of the Moon is Illuminated
Feb 4
Last Quarter
Feb 10
New
Feb 17
First Quarter
Feb 25
Full
Mar 4
Last Quarter

Hourly Weather History & Observations

Time (EST) Temp. Windchill Dew Point Humidity Pressure Visibility Wind Dir Wind Speed Gust Speed Precip Events Conditions
12:15 AM 22.5 °F 13.2 °F 14.9 °F 73% 30.11 in 10.0 mi WSW 8.1 mph - N/A   Overcast
12:35 AM 21.7 °F 13.2 °F 14.4 °F 73% 30.11 in 10.0 mi West 6.9 mph - N/A   Overcast
12:55 AM 21.2 °F 13.6 °F 14.0 °F 74% 30.11 in 10.0 mi WSW 5.8 mph - N/A   Overcast
1:15 AM 19.2 °F 10.2 °F 12.7 °F 76% 30.11 in 10.0 mi WSW 6.9 mph - N/A   Scattered Clouds
1:35 AM 20.5 °F 12.8 °F 13.6 °F 75% 30.11 in 10.0 mi West 5.8 mph - N/A   Mostly Cloudy
1:55 AM 21.0 °F 11.4 °F 13.8 °F 74% 30.11 in 10.0 mi West 8.1 mph - N/A   Mostly Cloudy
2:15 AM 20.1 °F 15.2 °F 13.1 °F 74% 30.11 in 10.0 mi West 3.5 mph - N/A   Scattered Clouds
2:35 AM 18.0 °F - 12.2 °F 78% 30.11 in 10.0 mi Calm Calm - N/A   Clear
2:55 AM 16.2 °F - 10.9 °F 80% 30.10 in 10.0 mi Calm Calm - N/A   Clear
3:15 AM 14.0 °F - 10.4 °F 86% 30.10 in 10.0 mi Calm Calm - N/A   Clear
3:35 AM 13.3 °F - 9.9 °F 86% 30.11 in 10.0 mi Calm Calm - N/A   Clear
3:55 AM 13.3 °F - 10.8 °F 90% 30.10 in 10.0 mi Calm Calm - N/A   Clear
4:15 AM 13.6 °F - 10.9 °F 89% 30.11 in 10.0 mi Calm Calm - N/A   Mostly Cloudy
5:55 AM 18.3 °F - 14.9 °F 86% 30.10 in 10.0 mi Calm Calm - N/A   Overcast
6:15 AM 19.0 °F - 15.4 °F 86% 30.10 in 10.0 mi Calm Calm - N/A   Overcast
6:35 AM 19.2 °F - 15.4 °F 85% 30.10 in 10.0 mi Calm Calm - N/A   Overcast
6:55 AM 18.1 °F 12.9 °F 14.4 °F 85% 30.09 in 10.0 mi South 3.5 mph - N/A   Overcast
7:15 AM 18.1 °F - 14.5 °F 86% 30.09 in 10.0 mi Calm Calm - N/A   Scattered Clouds
7:35 AM 18.0 °F - 14.5 °F 86% 30.09 in 10.0 mi Calm Calm - N/A   Clear
7:55 AM 18.5 °F - 14.9 °F 86% 30.09 in 10.0 mi Calm Calm - N/A   Mostly Cloudy
8:15 AM 19.8 °F 10.8 °F 15.4 °F 83% 30.08 in 10.0 mi SSE 6.9 mph - N/A   Overcast
8:35 AM 19.9 °F 12.1 °F 15.6 °F 83% 30.08 in 10.0 mi South 5.8 mph - N/A   Overcast
8:55 AM 20.3 °F 11.5 °F 15.8 °F 83% 30.07 in 10.0 mi South 6.9 mph - N/A   Scattered Clouds
9:15 AM 21.4 °F 12.8 °F 16.5 °F 82% 30.06 in 10.0 mi South 6.9 mph - N/A   Scattered Clouds
9:35 AM 22.6 °F 14.3 °F 17.2 °F 80% 30.04 in 10.0 mi SSE 6.9 mph - N/A   Mostly Cloudy
9:55 AM 23.9 °F 15.8 °F 18.0 °F 78% 30.03 in 10.0 mi South 6.9 mph - N/A   Mostly Cloudy
10:15 AM 25.0 °F 15.5 °F 18.5 °F 76% 30.02 in 10.0 mi South 9.2 mph 16.1 mph N/A   Overcast
10:35 AM 26.1 °F 16.2 °F 18.9 °F 74% 30.01 in 10.0 mi South 10.4 mph - N/A   Mostly Cloudy
10:55 AM 27.1 °F 19.7 °F 18.7 °F 70% 30.01 in 10.0 mi South 6.9 mph - N/A   Overcast
11:15 AM 27.5 °F 19.3 °F 17.6 °F 66% 30.00 in 10.0 mi South 8.1 mph - N/A   Overcast
11:35 AM 27.9 °F 18.4 °F 17.6 °F 65% 30.00 in 10.0 mi South 10.4 mph - N/A   Overcast
11:55 AM 28.4 °F 22.2 °F 18.1 °F 65% 29.99 in 10.0 mi SSW 5.8 mph - N/A   Overcast
12:15 PM 28.4 °F 19.7 °F 18.5 °F 66% 29.97 in 10.0 mi SSE 9.2 mph - N/A   Overcast
12:35 PM 28.9 °F 22.8 °F 19.2 °F 67% 29.96 in 10.0 mi South 5.8 mph - N/A   Overcast
12:55 PM 28.8 °F 21.7 °F 19.4 °F 68% 29.95 in 10.0 mi South 6.9 mph - N/A   Overcast
1:15 PM 29.1 °F 22.1 °F 19.6 °F 68% 29.94 in 10.0 mi South 6.9 mph - N/A   Overcast
1:35 PM 29.5 °F 24.5 °F 20.1 °F 68% 29.93 in 10.0 mi South 4.6 mph - N/A Snow Light Snow
1:55 PM 29.7 °F 24.7 °F 21.2 °F 71% 29.92 in 5.0 mi South 4.6 mph - N/A Snow Light Snow
2:15 PM 29.7 °F 22.8 °F 22.3 °F 74% 29.91 in 7.0 mi SSE 6.9 mph - N/A   Overcast
2:35 PM 30.0 °F 25.2 °F 22.1 °F 72% 29.89 in 7.0 mi SSE 4.6 mph - N/A Snow Light Snow
2:55 PM 30.9 °F 26.2 °F 22.1 °F 70% 29.89 in 10.0 mi SSE 4.6 mph - N/A   Overcast
3:15 PM 31.1 °F 26.4 °F 22.3 °F 70% 29.89 in 7.0 mi South 4.6 mph - N/A Snow Light Snow
3:35 PM 30.9 °F 26.2 °F 23.4 °F 74% 29.87 in 7.0 mi South 4.6 mph - N/A Snow Light Snow
3:55 PM 30.6 °F 27.1 °F 24.6 °F 79% 29.87 in 2.0 mi South 3.5 mph - N/A Snow Light Snow
4:15 PM 30.0 °F 25.2 °F 25.7 °F 84% 29.86 in 2.0 mi South 4.6 mph - N/A Snow Light Snow
4:35 PM 30.0 °F 26.5 °F 26.2 °F 86% 29.87 in 2.0 mi South 3.5 mph - N/A Snow Light Snow
4:55 PM 29.7 °F - 26.8 °F 89% 29.86 in 2.0 mi Calm Calm - N/A Snow Light Snow
5:15 PM 29.3 °F - 27.5 °F 93% 29.86 in 0.8 mi Calm Calm - N/A Snow Snow
5:35 PM 29.1 °F - 27.5 °F 94% 29.86 in 0.5 mi Calm Calm - N/A Snow Snow
5:55 PM 29.3 °F - 28.2 °F 96% 29.86 in 0.8 mi Calm Calm - N/A Snow Snow
6:15 PM 29.7 °F - 28.4 °F 95% 29.86 in 0.8 mi Calm Calm - N/A Snow Snow
6:35 PM 29.8 °F - 28.6 °F 95% 29.87 in 1.0 mi Calm Calm - N/A Snow Light Snow
6:55 PM 30.0 °F - 28.9 °F 96% 29.87 in 5.0 mi Calm Calm - N/A   Overcast
7:15 PM 30.2 °F - 29.1 °F 96% 29.87 in 3.0 mi Calm Calm - N/A Snow Light Snow
7:35 PM 30.2 °F - 29.1 °F 96% 29.87 in 3.0 mi Calm Calm - N/A Snow Light Snow
7:55 PM 30.4 °F - 29.3 °F 96% 29.87 in 2.5 mi Calm Calm - N/A Snow Light Snow
8:15 PM 31.1 °F - 30.0 °F 96% 29.87 in 7.0 mi Calm Calm - N/A   Overcast
8:35 PM 32.0 °F 28.7 °F 31.5 °F 98% 29.87 in 10.0 mi SSW 3.5 mph - N/A   Overcast
8:55 PM 32.5 °F - 31.8 °F 97% 29.87 in 10.0 mi Calm Calm - N/A   Overcast
9:15 PM 32.5 °F 29.3 °F 31.8 °F 97% 29.87 in 10.0 mi South 3.5 mph - N/A   Overcast
9:55 PM 32.5 °F 28.1 °F 31.8 °F 97% 29.86 in 10.0 mi South 4.6 mph - N/A   Overcast
10:15 PM 32.9 °F 28.5 °F 32.0 °F 96% 29.87 in 10.0 mi South 4.6 mph - N/A   Overcast
10:35 PM 32.9 °F 28.5 °F 32.0 °F 96% 29.86 in 10.0 mi SSW 4.6 mph - N/A   Overcast
10:55 PM 32.9 °F - 32.0 °F 96% 29.86 in 10.0 mi Calm Calm - N/A   Overcast
11:15 PM 32.9 °F - 32.0 °F 96% 29.86 in 10.0 mi Calm Calm - N/A   Overcast
11:35 PM 32.4 °F - 31.8 °F 98% 29.86 in 7.0 mi Calm Calm - N/A   Overcast
11:55 PM 32.7 °F - 32.0 °F 97% 29.86 in 7.0 mi Calm Calm - N/A   Overcast